Regional Weather Roundup
Issued by NWS

Home | Current Version | Previous Version | Graphics & Text | Print | Product List | Glossary On
Versions: 1 2 3 4 5 6 7 8 9 10 11 12 13 14 15 16 17 18 19 20 21 22 23 24 25 26 27 28 29 30 31 32 33 34 35 36 37 38 39 40 41 42 43 44 45 46 47 48 49 50
000
ASUS45 KPSR 010410
RWRAZ

ARIZONA REGIONAL HOURLY WEATHER ROUNDUP
NATIONAL WEATHER SERVICE PHOENIX AZ
900 PM MST SUN AUG 31 2014

NOTE: FAIR INDICATES FEW OR NO CLOUDS BELOW 12,000 FEET WITH NO
SIGNIFICANT WEATHER AND/OR OBSTRUCTIONS TO VISIBILITY.

AZZ001>003-036-010500-
NORTHWEST ARIZONA

CITY           SKY/WX    TMP DP  RH WIND       PRES   REMARKS
BULLHEAD CITY  CLEAR    100  45  15 SE14      29.66R
KINGMAN        CLEAR     80  36  20 SE10      29.91R
$$

AZZ004>008-015-016-018-010500-
NORTH CENTRAL ARIZONA

CITY           SKY/WX    TMP DP  RH WIND       PRES   REMARKS
GRAND CANYON     N/A    N/A N/A N/A MISG        N/A
WILLIAMS       CLEAR     68  39  34 SW10      30.24S
PRESCOTT       CLEAR     68  46  45 S7        30.07R
FLAGSTAFF      CLEAR     59  43  55 CALM      30.22R
PAYSON         CLEAR     73  39  29 S3        30.11R
PAGE           CLEAR     87  28  12 VRB7      29.91R
$$

AZZ009>014-017-010500-
NORTHEAST ARIZONA

CITY           SKY/WX    TMP DP  RH WIND       PRES   REMARKS
WINSLOW        CLEAR     73  43  33 S8        30.05R
SAINT JOHNS    CLEAR     71  42  35 SW9       30.11R
WINDOW ROCK    CLEAR     69  36  29 SW7       30.16R
SHOW LOW       CLEAR     63  37  39 S7        30.20R
$$

AZZ023-010500-
GREATER PHOENIX AREA

CITY           SKY/WX    TMP DP  RH WIND       PRES   REMARKS
PHOENIX        PTCLDY    98  43  15 SW7       29.73R
BUCKEYE          N/A     91  46  21 SW13      29.75R
LUKE AFB       NOT AVBL
DEER VALLEY    CLEAR     94  42  16 SW5       29.76R
SCOTTSDALE     CLEAR     94  46  19 CALM      29.78R
MESA-GATEWAY   CLEAR     93  39  15 SW7       29.79R
CHANDLER       PTCLDY    95  41  15 MISG      29.76R
$$

AZZ027-028-010500-
SOUTHWEST MARICOPA COUNTY AND PINAL COUNTY

CITY           SKY/WX    TMP DP  RH WIND       PRES   REMARKS
CASA GRANDE    CLEAR     91  45  19 SW3       29.80R
$$

AZZ503-504-507>509-010500-
SOUTHEAST ARIZONA

CITY           SKY/WX    TMP DP  RH WIND       PRES   REMARKS
TUCSON         CLEAR     90  42  18 SW6       29.92R
DAVIS-MONTHAN  CLEAR     86  45  23 SW6       29.91R
NOGALES        CLEAR     72  53  51 E6        30.02R
SIERRA VISTA   CLEAR     79  48  33 SW12      30.09R
DOUGLAS        CLEAR     76  53  44 N7        30.03R
SAFFORD        CLEAR     84  39  20 NW9       29.91R
$$

AZZ020-021-025-026-031-010500-
SOUTHWEST ARIZONA

CITY           SKY/WX    TMP DP  RH WIND       PRES   REMARKS
YUMA           CLEAR     95  65  37 S16       29.67R
$$

CAZ031-033-041-043-047-048-061-010500-
SOUTHERN CALIFORNIA

CITY           SKY/WX    TMP DP  RH WIND       PRES   REMARKS
DOWNTOWN L.A.  CLEAR     74  66  76 CALM      29.79R
L.A. AIRPORT   PTCLDY    73  64  73 S3        29.80R
SAN DIEGO      MOCLDY    71  65  81 S6        29.83R
BURBANK        CLEAR     75  62  64 CALM      29.81R
ONTARIO        PTCLDY    79  59  50 W7        29.81R
RIVERSIDE      CLEAR     77  62  59 W3        29.81R
PALM SPRINGS   CLEAR     98  46  17 NW21G28   29.67R
IMPERIAL       CLEAR     93  45  19 W10       29.64R
BLYTHE         CLEAR     98  42  14 S3        29.64R
NEEDLES        CLEAR     97  34  11 SW9       29.68R
$$

NVZ020-UTZ003-010500-
SOUTHERN NEVADA-UTAH

CITY           SKY/WX    TMP DP  RH WIND       PRES   REMARKS
LAS VEGAS      CLEAR     96  31  10 SW10      29.70R
SALT LAKE CITY CLEAR     63  37  38 S6        29.99R
$$

NMZ009-TXZ055-010500-
NEW MEXICO-WEST TEXAS

CITY           SKY/WX    TMP DP  RH WIND       PRES   REMARKS
ALBUQUERQUE    CLEAR     83  35  18 W13       30.02R
EL PASO        PTCLDY    89  43  20 W9        29.96R
$$


........................KEY........................
SKY/WX - SKY CONDITION/WEATHER
TMP    - TEMPERATURE IN FAHRENHEIT
DP     - DEW POINT IN FAHRENHEIT
RH     - RELATIVE HUMIDITY IN PERCENT
WIND   - DIRECTION AND SPEED IN MILES PER HOUR (MPH)
VRB    - VARIABLE WIND DIRECTION
PRES   - MEAN SEA LEVEL PRESSURE IN INCHES OF MERCURY
         F - FALLING PRESSURE   R - RISING PRESSURE
         S - STEADY PRESSURE
VSB    - VISIBILITY IN MILES
HX     - HEAT INDEX IN FAHRENHEIT
WCI    - WIND CHILL INDEX IN FAHRENHEIT
TC     - TEMPERATURE IN CELSIUS WHICH IS ALSO KNOWN AS
         TEMPERATURE IN CENTIGRADE
AFB    - AIR FORCE BASE
         LUKE AFB IS LUKE AIR FORCE BASE
         DAVIS-MONTHAN IS DAVIS-MONTHAN AIR FORCE BASE
NAS    - NAVAL AIR STATION
         EL CENTRO NAS IS EL CENTRO NAVAL AIR STATION
N/A    - NOT AVAILABLE



USA.gov is the U.S. government's official web portal to all federal, state and local government web resources and services.